Location: Godiavel Galaoual
(15.2485°N, 12.6604°W)
Time: 12:51:31
(UTC+00:00)

LightSail 2 - Pass Details

Date: 06 June 2020
Orbit: 691 x 722 km, 24.0° (Epoch: 06 July)

Event Time Altitude Azimuth Distance (km) Brightness Sun altitude
Exits shadow 05:44:22 - 285° (WNW) 2,884 7.8 -8.5°
Reaches altitude 10° 05:46:15 10° 283° (WNW) 2,184 7.2 -8.1°
Maximum altitude 05:51:21 62° 202° (SSW) 802 5.2 -7.0°
Drops below altitude 10° 05:56:29 10° 122° (ESE) 2,195 8.2 -5.9°
Sets 05:58:57 0° 119° (ESE) 3,116 9.0 -5.3°
